STARLINK-1373, 45544

Orbit data source: Space-Track

STARLINK-1373, 45544 is a payload satellite owned by SpaceX/Seattle (US) in LEO that was launched on Wed, 22 Apr 2020 UTC via an FALCON 9 launch vehicle from the Air Force Eastern Test Range (AFETR). Payload-class satellites include a variety of spacecraft equipped with specific instruments for various scientific and technological missions. These include communications satellites like Starlink; space stations such as the ISS; scientific satellites like the Hubble; Earth observation satellites from companies like Planet Labs, Umbra, and HawkEye 360; GPS; miniature CubeSats for education and research; and military/defense satellites.

Loading next visibility...
Identifier
45544, 2020-025P
Orbit
LEO
Country
Flag of USUS
Related business
Manufacturer
SpaceX/Seattle
Mission
Partially operational Commercial Communications
Bus & Motor
STARLINK, Unknown motor
Mass
260 kg wet, ~248 kg dry
Launch date (UTC)
2020-04-22 (6 years ago)
Launch vehicle
FALCON 9
Launch site
Air Force Eastern Test Range (AFETR)
Object type
Payload
Rocket body
Debris
Shape & HBR
Box + 1 Pan, 10.1 m
Radar Cross Section
13.562 m², Large (>1 m²)

Expand to show TLE details & history
Last TLE update: 3 hours ago

TLE from 3 hours ago
0 STARLINK-1373
1 45544U 20025P   26123.91668980 -.00034626  00000-0 -32386-3 0  9990
2 45544  53.0445 181.5110 0003357 330.2580 307.4217 15.66344483  5981
Epoch: 2026-05-03T22:00Z
TLE epoch observation values (Epoch: 2026-05-03T22:00:01.998Z)
Latitude
-52.53047°
Longitude
-87.74743°
Altitude
386.212 km
Speed
7.679 km/s
True Right ascension
06h 56m 17s
True Declination
-52° 21' 18"
Sunlit
Object was in daylight at epoch
Visualization orbit readout
Latitude
Unknown
Longitude
Unknown
Altitude
Unknown
Speed
Unknown
Apparent Right ascension
Unknown
Apparent Declination
Unknown
Sunlit
N/A
Visualization observer readout
Local Sidereal Time
08:18:03
Azimuth
Unknown
Elevation
Unknown
Doppler factor
Unknown
Orbital elements
Apogee altitude
371.919 km
Perigee altitude
367.389 km
Semi-major axis
6,747.791 km
Eccentricity
0.00034
Inclination
53.0445°
RAAN
181.511°
Arg. of periapsis
330.258°
True anomaly
307.39114°
Mean anomaly
307.4217°
Eccentric anomaly
307.40642°
Mean motion
3.91562 °/min
Orbital period
91.94 mins
BSTAR
-0.00032386
Loading maneuver chart data...
Computing Atmospheric mass density...

Documentation

Showing up to 5 results
|